• In Uzbekistan
  • List of Countries
  • For 7 days
  • Water Temperature
  • Satellite Maps
  • Weather Map
  • Weather Widgets
  • user-avatar
    Login

    Hourly Weather Ganja

    Today, 26 May, Saturday

    Time Temperature Precipitation Wind Pressure Humidity
    00:00 +21°C° 0 mm 2 mps 722 mmHg 53%
    01:00 +21°C° 0 mm 2 mps 722 mmHg 53%
    02:00 +20°C° 0 mm 2 mps 722 mmHg 53%
    03:00 +21°C° 0 mm 3 mps 721 mmHg 51%
    04:00 +21°C° 0 mm 3 mps 721 mmHg 51%
    05:00 +22°C° 0 mm 3 mps 722 mmHg 52%
    06:00 +22°C° 0 mm 3 mps 722 mmHg 53%
    07:00 +25°C° 0 mm 3 mps 722 mmHg 47%
    08:00 +27°C° 0 mm 3 mps 722 mmHg 42%
    09:00 +28°C° 0 mm 3 mps 722 mmHg 37%
    10:00 +29°C° 0.2 mm 3 mps 722 mmHg 36%
    11:00 +30°C° 0.2 mm 3 mps 722 mmHg 35%
    12:00 +31°C° 0.2 mm 2 mps 722 mmHg 34%
    13:00 +31°C° 0.1 mm 2 mps 722 mmHg 34%
    14:00 +31°C° 0.1 mm 2 mps 722 mmHg 33%
    15:00 +32°C° 0 mm 1 mps 722 mmHg 33%
    16:00 +31°C° 0.1 mm 2 mps 722 mmHg 37%
    17:00 +30°C° 0.1 mm 2 mps 723 mmHg 40%
    18:00 +30°C° 0.1 mm 2 mps 723 mmHg 44%
    19:00 +27°C° 0.9 mm 2 mps 723 mmHg 50%
    20:00 +25°C° 0.9 mm 1 mps 724 mmHg 56%
    21:00 +23°C° 0.9 mm 1 mps 724 mmHg 63%
    22:00 +23°C° 0.8 mm 1 mps 725 mmHg 65%
    23:00 +22°C° 0.8 mm 1 mps 725 mmHg 67%

    Tomorrow, 27 May, Sunday

    Time Temperature Precipitation Wind Pressure Humidity
    00:00 +22°C° 0.8 mm 1 mps 726 mmHg 69%
    01:00 +22°C° 0.2 mm 1 mps 726 mmHg 71%
    02:00 +20°C° 0.2 mm 2 mps 726 mmHg 74%
    03:00 +20°C° 0.2 mm 2 mps 726 mmHg 76%
    04:00 +20°C° 0.4 mm 2 mps 727 mmHg 76%
    05:00 +20°C° 0.4 mm 2 mps 727 mmHg 76%
    06:00 +20°C° 0.4 mm 2 mps 728 mmHg 76%
    07:00 +21°C° 0 mm 3 mps 728 mmHg 73%
    08:00 +22°C° 0 mm 4 mps 728 mmHg 69%
    09:00 +23°C° 0 mm 5 mps 729 mmHg 65%
    10:00 +24°C° 0 mm 6 mps 729 mmHg 62%
    11:00 +24°C° 0 mm 6 mps 729 mmHg 58%
    12:00 +26°C° 0 mm 7 mps 730 mmHg 55%
    13:00 +26°C° 0 mm 7 mps 730 mmHg 54%
    14:00 +26°C° 0 mm 7 mps 730 mmHg 54%
    15:00 +27°C° 0 mm 7 mps 730 mmHg 53%
    16:00 +26°C° 0 mm 7 mps 730 mmHg 56%
    17:00 +24°C° 0 mm 7 mps 730 mmHg 58%
    18:00 +23°C° 0 mm 7 mps 730 mmHg 61%
    19:00 +21°C° 0 mm 6 mps 730 mmHg 64%
    20:00 +20°C° 0 mm 6 mps 731 mmHg 67%
    21:00 +19°C° 0 mm 5 mps 731 mmHg 69%
    22:00 +17°C° 0 mm 5 mps 731 mmHg 70%
    23:00 +18°C° 0 mm 4 mps 731 mmHg 70%

    Day after tomorrow, 28 May, Monday

    Time Temperature Precipitation Wind Pressure Humidity
    00:00 +17°C° 0 mm 4 mps 731 mmHg 71%
    01:00 +17°C° 0 mm 3 mps 731 mmHg 72%
    02:00 +16°C° 0 mm 2 mps 730 mmHg 73%
    03:00 +16°C° 0 mm 1 mps 730 mmHg 74%
    04:00 +16°C° 0 mm 1 mps 730 mmHg 73%
    05:00 +18°C° 0 mm 1 mps 729 mmHg 72%
    06:00 +18°C° 0 mm 1 mps 729 mmHg 70%
    07:00 +20°C° 0 mm 1 mps 729 mmHg 66%
    08:00 +21°C° 0 mm 1 mps 728 mmHg 62%
    09:00 +23°C° 0 mm 2 mps 728 mmHg 58%
    10:00 +24°C° 0 mm 2 mps 727 mmHg 55%
    11:00 +25°C° 0 mm 1 mps 727 mmHg 52%
    12:00 +27°C° 0 mm 1 mps 726 mmHg 48%
    13:00 +28°C° 0.1 mm 2 mps 726 mmHg 47%
    14:00 +28°C° 0.1 mm 2 mps 725 mmHg 46%
    15:00 +29°C° 0.1 mm 2 mps 725 mmHg 44%
    16:00 +28°C° 0.1 mm 2 mps 725 mmHg 47%
    17:00 +28°C° 0.1 mm 3 mps 725 mmHg 49%
    18:00 +27°C° 0.1 mm 3 mps 724 mmHg 52%
    19:00 +26°C° 0 mm 2 mps 725 mmHg 55%
    20:00 +25°C° 0 mm 2 mps 725 mmHg 58%
    21:00 +23°C° 0 mm 2 mps 726 mmHg 60%
    22:00 +23°C° 0 mm 2 mps 726 mmHg 62%
    23:00 +21°C° 0 mm 2 mps 726 mmHg 63%

    29 May, Tuesday

    Time Temperature Precipitation Wind Pressure Humidity
    00:00 +21°C° 0 mm 2 mps 726 mmHg 64%
    01:00 +20°C° 0 mm 2 mps 726 mmHg 67%
    02:00 +21°C° 0 mm 1 mps 726 mmHg 70%
    03:00 +20°C° 0 mm 1 mps 726 mmHg 73%
    04:00 +20°C° 0 mm 1 mps 726 mmHg 73%
    05:00 +21°C° 0 mm 1 mps 726 mmHg 72%
    06:00 +21°C° 0 mm 1 mps 726 mmHg 71%
    07:00 +23°C° 0 mm 2 mps 726 mmHg 67%
    08:00 +24°C° 0 mm 3 mps 726 mmHg 63%
    09:00 +25°C° 0 mm 4 mps 726 mmHg 59%
    10:00 +26°C° 0 mm 5 mps 726 mmHg 56%
    11:00 +27°C° 0 mm 6 mps 726 mmHg 53%
    12:00 +27°C° 0 mm 6 mps 726 mmHg 50%
    13:00 +27°C° 0 mm 6 mps 726 mmHg 49%
    14:00 +27°C° 0 mm 7 mps 725 mmHg 49%
    15:00 +27°C° 0 mm 7 mps 725 mmHg 48%
    16:00 +27°C° 0 mm 7 mps 725 mmHg 49%
    17:00 +26°C° 0 mm 7 mps 726 mmHg 50%
    18:00 +24°C° 0 mm 6 mps 726 mmHg 51%
    19:00 +23°C° 0.2 mm 6 mps 726 mmHg 51%
    20:00 +22°C° 0.2 mm 6 mps 727 mmHg 52%
    21:00 +21°C° 0.2 mm 6 mps 727 mmHg 52%
    22:00 +20°C° 0.6 mm 6 mps 727 mmHg 56%
    23:00 +19°C° 0.6 mm 6 mps 727 mmHg 59%

    30 May, Wednesday

    Time Temperature Precipitation Wind Pressure Humidity
    00:00 +17°C° 0.6 mm 5 mps 727 mmHg 62%
    01:00 +17°C° 0 mm 5 mps 727 mmHg 63%
    02:00 +17°C° 0 mm 4 mps 727 mmHg 64%
    03:00 +17°C° 0 mm 4 mps 727 mmHg 64%
    04:00 +17°C° 0 mm 3 mps 727 mmHg 64%
    05:00 +17°C° 0 mm 3 mps 727 mmHg 65%
    06:00 +17°C° 0 mm 3 mps 727 mmHg 65%
    07:00 +18°C° 0 mm 3 mps 727 mmHg 61%
    08:00 +20°C° 0 mm 3 mps 727 mmHg 58%
    09:00 +21°C° 0 mm 4 mps 727 mmHg 54%
    10:00 +22°C° 0 mm 4 mps 727 mmHg 53%
    11:00 +22°C° 0 mm 4 mps 727 mmHg 51%
    12:00 +23°C° 0 mm 4 mps 726 mmHg 50%
    13:00 +25°C° 0 mm 4 mps 726 mmHg 49%
    14:00 +25°C° 0 mm 4 mps 725 mmHg 48%
    15:00 +26°C° 0 mm 4 mps 725 mmHg 47%
    16:00 +26°C° 0 mm 4 mps 725 mmHg 49%
    17:00 +26°C° 0 mm 3 mps 725 mmHg 51%
    18:00 +25°C° 0 mm 3 mps 725 mmHg 52%
    19:00 +24°C° 0 mm 3 mps 725 mmHg 55%
    20:00 +23°C° 0 mm 2 mps 725 mmHg 57%
    21:00 +21°C° 0 mm 2 mps 725 mmHg 59%
    22:00 +20°C° 0 mm 2 mps 725 mmHg 60%
    23:00 +21°C° 0 mm 1 mps 724 mmHg 61%

    31 May, Thursday

    Time Temperature Precipitation Wind Pressure Humidity
    00:00 +21°C° 0 mm 1 mps 724 mmHg 62%
    01:00 +20°C° 0 mm 1 mps 724 mmHg 62%
    02:00 +20°C° 0 mm 1 mps 723 mmHg 62%
    03:00 +19°C° 0 mm 1 mps 723 mmHg 62%
    04:00 +20°C° 0 mm 1 mps 722 mmHg 61%
    05:00 +19°C° 0 mm 2 mps 722 mmHg 61%
    06:00 +20°C° 0 mm 2 mps 722 mmHg 60%
    07:00 +21°C° 0 mm 2 mps 721 mmHg 56%
    08:00 +24°C° 0 mm 2 mps 721 mmHg 52%
    09:00 +25°C° 0 mm 2 mps 721 mmHg 48%
    10:00 +26°C° 0.2 mm 2 mps 720 mmHg 46%
    11:00 +27°C° 0.2 mm 2 mps 720 mmHg 44%
    12:00 +28°C° 0.2 mm 2 mps 719 mmHg 42%
    13:00 +29°C° 0.5 mm 2 mps 719 mmHg 42%
    14:00 +29°C° 0.5 mm 2 mps 718 mmHg 41%
    15:00 +30°C° 0.5 mm 2 mps 718 mmHg 41%
    16:00 +29°C° 0.4 mm 2 mps 718 mmHg 45%
    17:00 +29°C° 0.4 mm 2 mps 718 mmHg 48%
    18:00 +28°C° 0.4 mm 1 mps 718 mmHg 52%
    19:00 +27°C° 0.5 mm 1 mps 718 mmHg 56%
    20:00 +25°C° 0.5 mm 1 mps 719 mmHg 60%
    21:00 +24°C° 0.5 mm 1 mps 719 mmHg 65%
    22:00 +23°C° 0.9 mm 2 mps 719 mmHg 67%
    23:00 +23°C° 0.9 mm 2 mps 719 mmHg 68%
    Show more